Regional Weather Roundup
Issued by NWS Lake Charles, LA

Home | Current Version | Previous Version | Text Only | Print | Product List | Glossary On
Versions: 1 2 3 4 5 6 7 8 9 10 11 12 13 14 15 16 17 18 19 20 21 22 23 24 25 26 27 28 29 30 31 32 33 34 35 36 37 38 39 40 41 42 43 44 45 46 47 48 49 50
000
ASUS44 KLCH 271110
RWRLCH
RWRLCH
REGIONAL WEATHER ROUNDUP
NATIONAL WEATHER SERVICE LAKE CHARLES LA
600 AM CDT WED AUG 27 2014

Note: "fair" indicates few or no clouds below 12,000 feet with no
significant weather and/or obstructions to visibility.


ACROSS SOUTHEAST TEXAS

CITY           SKY/WX    TMP DP  RH WIND       PRES   REMARKS
BEAUMONT       PTCLDY    76  73  91 N10       29.96R
BEAUMONT CITY    N/A     74  73  95 N6        29.97R
ORANGE         MOSUNNY   74  74 100 CALM      29.98R FOG
JASPER         CLEAR     70  67  90 CALM      30.01R FOG
$$

ACROSS CENTRAL LOUISIANA

CITY           SKY/WX    TMP DP  RH WIND       PRES   REMARKS
LEESVILLE      MOCLDY    73  66  78 NE6       29.99S
FULLERTON      PTSUNNY   73  67  81 CALM      29.98R
ALEXANDRIA INT PTCLDY    69  67  93 CALM      29.98S
ESLER FIELD    MOCLDY    69  66  90 CALM      30.00S
DERIDDER         N/A     73  67  82 CALM      30.01R
OAKDALE        SUNNY     69  68  96 CALM      29.99R
OPELOUSAS        N/A    N/A N/A N/A NE3       29.98R
$$

ACROSS SOUTHWEST AND SOUTH CENTRAL LOUISIANA

CITY           SKY/WX    TMP DP  RH WIND       PRES   REMARKS
SULPHUR        SUNNY     76  74  92 N6        29.98R
LAKE CHARLES   PTCLDY    76  73  91 NE6       29.96R
CHENNAULT INT  CLEAR     75  72  88 NE8       29.97S
CAMERON PHI    SUNNY     77  73  88 NE9       29.96R
DEQUINCY       PTSUNNY   73  71  94 CALM      29.98R
JENNINGS         N/A     73  72  96 CALM      29.97S
LAFAYETTE      CLEAR     75  73  93 NE5       29.97S
NEW IBERIA     CLEAR     77  74  90 NE8       29.97S
ABBEVILLE        N/A     74  73  98 CALM      29.97R
PATTERSON        N/A     73  73 100 CALM      29.99R
SALT POINT       N/A     78  75  90 CALM      29.95R
$$

SELECTED SITES ACROSS THE REGION

CITY           SKY/WX    TMP DP  RH WIND       PRES   REMARKS
HOUSTON BUSH   MOCLDY    75  72  88 CALM      29.96S
HOUSTON HOBBY  PTCLDY    79  73  82 NE8       29.94S
GALVESTON      PTCLDY    82  75  79 NE14      29.93F
COLLEGE STAT   CLEAR     76  70  82 NE3       29.99S
CONROE         CLEAR     70  69  97 CALM      29.99R
HUNTSVILLE     CLEAR     72  69  90 CALM      29.99S
LUFKIN         CLEAR     73  69  87 N5        30.00R
SHREVEPORT     PTCLDY    72  69  90 CALM      30.02R
MONROE         CLEAR     67  65  93 NE5       30.04R
NATCHEZ MS     MOCLDY    66  64  94 CALM      30.03R
BATON ROUGE    CLEAR     72  69  90 NE3       29.98S
N.O. INTL ARPT MOCLDY    81  76  84 NE8       29.97R
SLIDELL        PTCLDY    74  71  91 N3        29.98R
$$

MARINE REPORTS

STATION/POSITION TIME  TEMP    WIND        PRES    VSBY  WAVE
                       AIR SEA DIR/SP/G                  HT/PER
                 (UTC) (F)     (DEG/KT/KT) (MB)    (MI)  (FT/S)
BUOY 30 S HIGH I 1100   84 87   90/ 12/ 14 1013.0R         4/ 6
SEA RIM ST PARK  1100   79      30/  9/ 11 1014.9R
PORT ARTHUR      1100      87   40/  2/  6 1014.4R
SABINE PASS N    1100   78 86   30/ 11/ 13 1014.2R
TEXAS POINT      1100   77 86   30/ 11/ 13 1014.2R
CALCASIEU PASS   1100   78 85   60/  8/ 11 1015.4R
LK CHARLES BEACH 1100   76 88              1015.5R
MARSH ISLAND     NOT AVBL
FRESH WATER LOCK 1100   77 85   30/  5/  6 1014.1R
AMERADA PASS     1100   77 83   60/  3/  5 1014.3R
$$



USA.gov is the U.S. government's official web portal to all federal, state and local government web resources and services.